Terug naar catalogus

STARLINK-32591

ActiefCommunicatieVLEO
NORAD 61718·PAYLOAD·🇺🇸 United States

Gelanceerd Oct 30, 2024 vanaf Cape Canaveral Space Force Station

Loading…

Volgende Passages (komende 24 uur)

TLE

VersSource: CelesTrak SupGP

Epoch: Sep 14, 2026, 20:46 UTC

1 61718C 24196M   26257.86576389  .00022730  00000+0  67181-3 0  2575
2 61718  53.1567 285.7515 0001090  89.0026  55.7151 15.34367893    14

Volg STARLINK-32591 in realtime met AllMySat

Download on the App Store